When you browse on this site, cookies collect data to enhance your experience and personalize the content and advertising you see.
Visit our Privacy Policy to learn more. By continuing to use the site, you agree to this use of cookies and data.
  • In Lithuania
  • List of Countries
  • For 7 days
  • Water Temperature
  • Satellite Maps
  • Weather Map
  • Weather Widgets
  • user-avatar
    Login

    Hourly Weather Yugo-Vostochnyy

    Today, 21 February, Thursday

    Time Temperature Precipitation Wind Pressure Humidity
    00:00 0°C° 0 mm 1 mps 754 mmHg 70%
    01:00 0°C° 0 mm 1 mps 753 mmHg 70%
    02:00 0°C° 0 mm 1 mps 753 mmHg 71%
    03:00 0°C° 0 mm 1 mps 753 mmHg 73%
    04:00 0°C° 0 mm 1 mps 752 mmHg 69%
    05:00 0°C° 0 mm 1 mps 752 mmHg 66%
    06:00 -2°C° 0 mm 2 mps 752 mmHg 63%
    07:00 +1°C° 0 mm 1 mps 752 mmHg 56%
    08:00 +2°C° 0 mm 1 mps 752 mmHg 49%
    09:00 +3°C° 0 mm 1 mps 752 mmHg 42%
    10:00 +5°C° 0 mm 1 mps 752 mmHg 38%
    11:00 +6°C° 0 mm 1 mps 751 mmHg 34%
    12:00 +7°C° 0 mm 0 mps 751 mmHg 30%
    13:00 +9°C° 0 mm 1 mps 751 mmHg 30%
    14:00 +9°C° 0 mm 1 mps 751 mmHg 30%
    15:00 +10°C° 0 mm 1 mps 750 mmHg 30%
    16:00 +8°C° 0 mm 1 mps 750 mmHg 36%
    17:00 +7°C° 0 mm 1 mps 751 mmHg 42%
    18:00 +6°C° 0 mm 1 mps 751 mmHg 49%
    19:00 +5°C° 0 mm 1 mps 751 mmHg 50%
    20:00 +5°C° 0 mm 1 mps 751 mmHg 51%
    21:00 +4°C° 0 mm 2 mps 751 mmHg 52%
    22:00 +4°C° 0 mm 2 mps 751 mmHg 51%
    23:00 +4°C° 0 mm 2 mps 751 mmHg 50%

    Tomorrow, 22 February, Friday

    Time Temperature Precipitation Wind Pressure Humidity
    00:00 +4°C° 0 mm 2 mps 751 mmHg 49%
    01:00 +4°C° 0 mm 2 mps 751 mmHg 53%
    02:00 +4°C° 0 mm 2 mps 751 mmHg 58%
    03:00 +5°C° 0 mm 1 mps 751 mmHg 62%
    04:00 +4°C° 0 mm 1 mps 751 mmHg 67%
    05:00 +3°C° 0 mm 2 mps 751 mmHg 72%
    06:00 +2°C° 0 mm 2 mps 751 mmHg 77%
    07:00 +2°C° 0 mm 3 mps 752 mmHg 75%
    08:00 +3°C° 0 mm 4 mps 752 mmHg 72%
    09:00 +4°C° 0 mm 4 mps 753 mmHg 69%
    10:00 +5°C° 0 mm 4 mps 753 mmHg 64%
    11:00 +5°C° 0 mm 4 mps 753 mmHg 58%
    12:00 +6°C° 0 mm 4 mps 753 mmHg 53%
    13:00 +7°C° 0 mm 3 mps 753 mmHg 50%
    14:00 +7°C° 0 mm 3 mps 753 mmHg 48%
    15:00 +8°C° 0 mm 2 mps 753 mmHg 45%
    16:00 +7°C° 0 mm 2 mps 753 mmHg 48%
    17:00 +6°C° 0 mm 2 mps 753 mmHg 51%
    18:00 +6°C° 0 mm 1 mps 754 mmHg 54%
    19:00 +5°C° 0 mm 2 mps 754 mmHg 56%
    20:00 +4°C° 0 mm 2 mps 754 mmHg 58%
    21:00 +3°C° 0 mm 3 mps 754 mmHg 60%
    22:00 +3°C° 0 mm 3 mps 754 mmHg 65%
    23:00 +2°C° 0 mm 3 mps 754 mmHg 70%

    Day after tomorrow, 23 February, Saturday

    Time Temperature Precipitation Wind Pressure Humidity
    00:00 +2°C° 0 mm 3 mps 754 mmHg 75%
    01:00 +1°C° 0 mm 3 mps 754 mmHg 78%
    02:00 +1°C° 0 mm 3 mps 754 mmHg 81%
    03:00 0°C° 0 mm 4 mps 753 mmHg 83%
    04:00 +1°C° 0 mm 3 mps 754 mmHg 85%
    05:00 0°C° 0 mm 3 mps 754 mmHg 87%
    06:00 0°C° 0 mm 3 mps 754 mmHg 89%
    07:00 0°C° 0 mm 4 mps 754 mmHg 86%
    08:00 +1°C° 0 mm 5 mps 755 mmHg 82%
    09:00 +2°C° 0 mm 6 mps 755 mmHg 79%
    10:00 +3°C° 0 mm 6 mps 755 mmHg 73%
    11:00 +5°C° 0 mm 6 mps 755 mmHg 68%
    12:00 +7°C° 0 mm 6 mps 755 mmHg 63%
    13:00 +8°C° 0 mm 6 mps 755 mmHg 60%
    14:00 +9°C° 0 mm 6 mps 754 mmHg 57%
    15:00 +9°C° 0 mm 6 mps 754 mmHg 54%
    16:00 +8°C° 0 mm 6 mps 755 mmHg 57%
    17:00 +7°C° 0 mm 5 mps 755 mmHg 60%
    18:00 +6°C° 0 mm 5 mps 755 mmHg 63%
    19:00 +6°C° 0 mm 4 mps 756 mmHg 66%
    20:00 +5°C° 0 mm 4 mps 756 mmHg 68%
    21:00 +4°C° 0 mm 4 mps 756 mmHg 71%
    22:00 +3°C° 0 mm 4 mps 756 mmHg 75%
    23:00 +3°C° 0 mm 3 mps 757 mmHg 79%

    24 February, Sunday

    Time Temperature Precipitation Wind Pressure Humidity
    00:00 +2°C° 0 mm 3 mps 757 mmHg 83%
    01:00 +2°C° 0 mm 3 mps 757 mmHg 85%
    02:00 +1°C° 0 mm 3 mps 757 mmHg 88%
    03:00 +2°C° 0 mm 2 mps 757 mmHg 90%
    04:00 +2°C° 0 mm 2 mps 757 mmHg 91%
    05:00 +2°C° 0 mm 1 mps 757 mmHg 92%
    06:00 +2°C° 0 mm 1 mps 758 mmHg 93%
    07:00 +3°C° 0 mm 1 mps 758 mmHg 89%
    08:00 +4°C° 0 mm 1 mps 758 mmHg 85%
    09:00 +4°C° 0 mm 1 mps 758 mmHg 81%
    10:00 +6°C° 0 mm 1 mps 758 mmHg 75%
    11:00 +7°C° 0 mm 1 mps 758 mmHg 68%
    12:00 +8°C° 0 mm 1 mps 758 mmHg 62%
    13:00 +8°C° 0 mm 2 mps 758 mmHg 58%
    14:00 +9°C° 0 mm 2 mps 757 mmHg 55%
    15:00 +10°C° 0 mm 2 mps 757 mmHg 51%
    16:00 +9°C° 0 mm 2 mps 757 mmHg 55%
    17:00 +9°C° 0 mm 1 mps 758 mmHg 59%
    18:00 +8°C° 0 mm 1 mps 758 mmHg 63%
    19:00 +8°C° 0 mm 1 mps 758 mmHg 65%
    20:00 +7°C° 0 mm 1 mps 758 mmHg 67%
    21:00 +7°C° 0 mm 1 mps 759 mmHg 69%
    22:00 +6°C° 0.1 mm 0 mps 759 mmHg 70%
    23:00 +6°C° 0.1 mm 0 mps 759 mmHg 71%

    25 February, Monday

    Time Temperature Precipitation Wind Pressure Humidity
    00:00 +6°C° 0.1 mm 0 mps 759 mmHg 72%
    01:00 +7°C° 0.1 mm 1 mps 758 mmHg 73%
    02:00 +7°C° 0.1 mm 1 mps 758 mmHg 74%
    03:00 +6°C° 0.1 mm 2 mps 758 mmHg 75%
    04:00 +5°C° 0.4 mm 2 mps 758 mmHg 79%
    05:00 +4°C° 0.4 mm 3 mps 759 mmHg 83%
    06:00 +3°C° 0.4 mm 4 mps 759 mmHg 86%
    07:00 +3°C° 0.7 mm 4 mps 759 mmHg 86%
    08:00 +3°C° 0.7 mm 4 mps 759 mmHg 85%
    09:00 +1°C° 0.7 mm 4 mps 759 mmHg 84%
    10:00 +2°C° 0.4 mm 3 mps 759 mmHg 83%
    11:00 +2°C° 0.4 mm 3 mps 759 mmHg 82%
    12:00 +2°C° 0.4 mm 3 mps 758 mmHg 80%
    13:00 +3°C° 0.2 mm 3 mps 758 mmHg 79%
    14:00 +3°C° 0.2 mm 3 mps 758 mmHg 77%
    15:00 +3°C° 0.2 mm 3 mps 757 mmHg 75%
    16:00 +3°C° 0 mm 3 mps 757 mmHg 77%
    17:00 +3°C° 0 mm 3 mps 756 mmHg 79%
    18:00 +4°C° 0 mm 2 mps 756 mmHg 80%
    19:00 +2°C° 0 mm 3 mps 756 mmHg 80%
    20:00 +2°C° 0 mm 3 mps 755 mmHg 80%
    21:00 +1°C° 0 mm 3 mps 755 mmHg 81%
    22:00 +1°C° 0 mm 3 mps 754 mmHg 82%
    23:00 0°C° 0 mm 3 mps 754 mmHg 84%

    26 February, Tuesday

    Time Temperature Precipitation Wind Pressure Humidity
    00:00 0°C° 0 mm 3 mps 753 mmHg 85%
    01:00 0°C° 0 mm 3 mps 752 mmHg 85%
    02:00 -1°C° 0 mm 3 mps 752 mmHg 84%
    03:00 -1°C° 0 mm 3 mps 751 mmHg 84%
    04:00 -1°C° 0 mm 3 mps 750 mmHg 84%
    05:00 -1°C° 0 mm 3 mps 750 mmHg 84%
    06:00 -2°C° 0 mm 4 mps 749 mmHg 85%
    07:00 -1°C° 0 mm 4 mps 749 mmHg 78%
    08:00 0°C° 0 mm 5 mps 748 mmHg 72%
    09:00 +1°C° 0 mm 6 mps 747 mmHg 65%
    10:00 +2°C° 0 mm 7 mps 746 mmHg 60%
    11:00 +4°C° 0 mm 7 mps 746 mmHg 55%
    12:00 +5°C° 0 mm 8 mps 745 mmHg 50%
    13:00 +5°C° 0 mm 8 mps 744 mmHg 51%
    14:00 +5°C° 0 mm 8 mps 744 mmHg 53%
    15:00 +5°C° 0 mm 8 mps 743 mmHg 55%
    16:00 +4°C° 0 mm 7 mps 743 mmHg 59%
    17:00 +3°C° 0 mm 6 mps 743 mmHg 63%
    18:00 +2°C° 0 mm 5 mps 743 mmHg 67%
    19:00 +3°C° 0.1 mm 4 mps 743 mmHg 67%
    20:00 +2°C° 0.1 mm 3 mps 743 mmHg 68%
    21:00 +2°C° 0.1 mm 2 mps 743 mmHg 69%
    22:00 +2°C° 0.1 mm 2 mps 743 mmHg 70%
    23:00 +2°C° 0.1 mm 2 mps 742 mmHg 71%
    Show more